Home   Weather   Arrecife   Past weeks

Flag for Spain Past Weather in Arrecife, Canary Islands, Spain — Yesterday and Last 2 Weeks

70 °F

Partly cloudy.

Feels Like: 70 °F
Forecast: 70 / 76 °F
Wind: 1 mph from North

Location: Lanzarote / Aeropuerto

Current Time: Oct 23, 2016 at 11:18:36 PM

Latest Report: Oct 23, 2016 at 10:30 PM

Visibility: N/A

Pressure: 29.86 "Hg

Humidity: 64%

Dew Point: 57 °F

Location of ArrecifeLocation

Past Weather in Arrecife — Graph


Arrecife Temperature Yesterday

Maximum temperature yesterday: 77 °F (at 1:00 PM)
Minimum temperature yesterday: 66 °F (at 6:00 AM)
Average temperature yesterday: 73 °F

High & Low Weather Summary for the Past Weeks

High88 °F (Oct 18, 12:30 PM)89% (Oct 22, 7:30 PM)30.15 "Hg (Oct 22, 7:30 PM)
Low64 °F (Oct 15, 6:30 AM)24% (Oct 18, 12:30 PM)29.83 "Hg (Oct 23, 3:00 PM)
Average75 °F70%30.00 "Hg
* Reported Oct 8 10:00 PM — Oct 23 10:00 PM, Arrecife, Weather by CustomWeather, © 2016

Note: Actual official high and low records may vary slightly from our data, if they occured in-between our weather recording intervals... More about our weather records


Arrecife Weather History for the Previous 24 Hours

Scroll right to see more
Time TempWeatherWind HumidityBarometerVisibility
10:00 PM
Sun, Oct 23
70 °FScattered showers. Partly cloudy.1 mph64%29.86 "HgN/A
9:30 PM70 °FPartly cloudy.9 mph64%29.83 "HgN/A
9:00 PM70 °FPartly cloudy.15 mph73%29.83 "HgN/A
8:30 PM70 °FPartly cloudy.12 mph64%29.83 "HgN/A
8:00 PM68 °FPassing clouds.16 mph78%29.83 "HgN/A
7:30 PM68 °FScattered showers. Partly cloudy.15 mph83%29.83 "HgN/A
7:00 PM70 °FScattered showers. Broken clouds.16 mph78%29.83 "HgN/A
6:30 PM72 °FBroken clouds.17 mph78%29.83 "HgN/A
6:00 PM75 °FScattered clouds.14 mph69%29.83 "HgN/A
5:30 PM75 °FScattered clouds.13 mph69%29.83 "HgN/A
5:00 PM79 °FScattered clouds.15 mph58%29.83 "HgN/A
4:30 PM79 °FScattered clouds.13 mph58%29.83 "HgN/A
4:00 PM79 °FScattered clouds.18 mph58%29.83 "HgN/A
3:30 PM79 °FScattered clouds.20 mph65%29.83 "HgN/A
3:00 PM79 °FScattered clouds.18 mph65%29.83 "HgN/A
2:30 PM79 °FScattered clouds.17 mph61%29.86 "HgN/A
2:00 PM79 °FScattered clouds.17 mph58%29.86 "HgN/A
1:30 PM77 °FPassing clouds.14 mph69%29.89 "HgN/A
1:00 PM77 °FPassing clouds.15 mph69%29.89 "HgN/A
12:30 PM77 °FScattered clouds.13 mph69%29.92 "HgN/A
12:00 PM75 °FScattered clouds.13 mph74%29.92 "HgN/A
11:30 AM75 °FScattered clouds.12 mph78%29.92 "HgN/A
11:00 AM75 °FScattered clouds.12 mph78%29.92 "HgN/A
10:30 AM73 °FPartly sunny.10 mph83%29.92 "HgN/A
10:00 AM73 °FScattered clouds.7 mph83%29.92 "HgN/A
9:30 AM72 °FPassing clouds.1 mph88%29.92 "HgN/A
9:00 AM70 °FPassing clouds.1 mph88%29.92 "HgN/A
8:30 AM68 °FPassing clouds.2 mph88%29.92 "HgN/A
8:00 AM66 °FPassing clouds.3 mph88%29.92 "HgN/A
7:30 AM66 °FPassing clouds.3 mph88%29.92 "HgN/A
7:00 AM66 °FPassing clouds.3 mph88%29.92 "HgN/A
6:30 AM66 °FPassing clouds.1 mph88%29.92 "HgN/A
6:00 AM66 °FPassing clouds.2 mph88%29.89 "HgN/A
1:00 AM70 °FPassing clouds.3 mph83%29.95 "HgN/A
12:30 AM72 °FPassing clouds.2 mph78%29.98 "HgN/A
12:00 AM72 °FPassing clouds.5 mph83%29.98 "HgN/A
11:30 PM
Sat, Oct 22
72 °FPassing clouds.3 mph83%29.98 "HgN/A
11:00 PM72 °FPassing clouds.2 mph83%29.98 "HgN/A
Weather by CustomWeather, © 2016

See weather overviewHow to use our weather pages